Regional Weather Roundup
Issued by NWS

Home | Current Version | Previous Version | Graphics & Text | Print | Product List | Glossary On
Versions: 1 2 3 4 5 6 7 8 9 10 11 12 13 14 15 16 17 18 19 20 21 22 23 24 25 26 27 28 29 30 31 32 33 34 35 36 37 38 39 40 41 42 43 44 45 46 47 48 49 50
000
ASUS43 KIND 272359
RWRIN

WEATHER ROUNDUP FOR INDIANA
NATIONAL WEATHER SERVICE INDIANAPOLIS IN
800 PM EDT THU APR 27 2017

NOTE: "FAIR" INDICATES FEW OR NO CLOUDS BELOW 12,000 FEET WITH NO
SIGNIFICANT WEATHER AND/OR OBSTRUCTIONS TO VISIBILITY.

* - STATION DOES NOT REPORT WEATHER SUCH AS PRECIPITATION OR FOG.

+ - STATION NOT QUALITY CONTROLLED BY THE NATIONAL WEATHER SERVICE.
    USE DATA WITH CAUTION...ESPECIALLY DEWPOINT AND RELATIVE
    HUMIDITY OBSERVATIONS.

INZ001>003-010>013-019-020-280100-
NORTHWEST INDIANA

CITY           SKY/WX    TMP DP  RH WIND       PRES   REMARKS
GARY /AIRPORT/ CLOUDY    50  39  66 SW14G26   29.75S
MONTICELLO +   CLOUDY    49  42  77 W13       29.79R
6HR MIN TEMP:  48; 6HR MAX TEMP:  50;

RENSSELAER +   CLOUDY    48  41  76 SW13      29.79R

$$

LMZ046-743>745-280100-
SOUTHERN LAKE MICHIGAN

STATION/POSITION TIME  TEMP    WIND        PRES    WAVE
                       AIR SEA DIR/SP/G            HT
                 (UTC) (F)     (DEG/KT/KT) (MB)    (FT)
BURNS HARBOR     2340   49     230/  9/ 22 1007.8R
MICHIGAN CITY    2330   47     220/ 18/ 20   N/A
5NW MICH CITY    2350   47 47                N/A     3

$$

INZ004-005-014>016-021>024-280100-
NORTH CENTRAL INDIANA

CITY           SKY/WX    TMP DP  RH WIND       PRES   REMARKS
ELKHART        CLOUDY    48  39  71 SW14      29.75S
GOSHEN         CLOUDY    49  39  68 SW15      29.76R
6HR MIN TEMP:  49; 6HR MAX TEMP:  53;

PERU/GRISSOM   CLOUDY    50  45  81 SW14      29.78R
SOUTH BEND     CLOUDY    48  40  73 SW10      29.76R
6HR MIN TEMP:  47; 6HR MAX TEMP:  49;


$$

INZ006>009-017-018-025>027-280100-
NORTHEAST INDIANA

CITY           SKY/WX    TMP DP  RH WIND       PRES   REMARKS
ANGOLA *+      CLOUDY    48  41  76 W12       29.75S
FORT WAYNE     MOCLDY    52  43  71 SW14      29.79R
6HR MIN TEMP:  52; 6HR MAX TEMP:  57;

KENDALLVILLE + CLOUDY    48  41  77 W13G20    29.77R

$$

INZ028-029-035-036-043>045-051>053-280100-
WEST CENTRAL INDIANA

CITY           SKY/WX    TMP DP  RH WIND       PRES   REMARKS
CRAWFORDSVL +  CLOUDY    49  44  81 SW8       29.81S
6HR MIN TEMP:  47; 6HR MAX TEMP:  50;

GREENCASTLE +  CLOUDY    52  43  71 CALM      29.82S
LAFAYETTE      CLOUDY    50  43  77 SW12      29.80R
6HR MIN TEMP:  48; 6HR MAX TEMP:  51;

TERRE HAUTE    CLOUDY    53  43  68 SW8       29.82R
6HR MIN TEMP:  52; 6HR MAX TEMP:  55;


$$

INZ030>032-037>040-046>048-054>057-064-065-280100-
CENTRAL INDIANA

CITY           SKY/WX    TMP DP  RH WIND       PRES   REMARKS
INDIANAPOLIS   MOCLDY    53  44  71 SW13      29.81R
6HR MIN TEMP:  53; 6HR MAX TEMP:  57;

-EAGLE CREEK   CLOUDY    54  43  66 VRB7      29.81R
6HR MIN TEMP:  53; 6HR MAX TEMP:  56;

KOKOMO +       CLOUDY    51  43  74 W16       29.81R
6HR MIN TEMP:  51; 6HR MAX TEMP:  52;

SHELBYVILLE    PTCLDY    58  44  60 W12       29.81R
6HR MIN TEMP:  58; 6HR MAX TEMP:  62;


$$

INZ033-034-041-042-049-050-058-059-280100-
EAST CENTRAL INDIANA

CITY           SKY/WX    TMP DP  RH WIND       PRES   REMARKS
MUNCIE         MOCLDY    55  46  71 W10       29.80R
6HR MIN TEMP:  55; 6HR MAX TEMP:  58;

RICHMOND +     PTCLDY    54  45  71 W8        29.81S

$$

INZ060-061-067>069-081>083-085>088-280100-
SOUTHWEST INDIANA

CITY           SKY/WX    TMP DP  RH WIND       PRES   REMARKS
EVANSVILLE     PTCLDY    59  47  64 SW6       29.83S
6HR MIN TEMP:  56; 6HR MAX TEMP:  62;

HUNTINGBURG *+ MOCLDY    58  50  75 W6        29.83S
6HR MIN TEMP:  56; 6HR MAX TEMP:  61;


$$

INZ062-063-066-070>080-084-089>092-280100-
SOUTH CENTRAL AND SOUTHEAST INDIANA

CITY           SKY/WX    TMP DP  RH WIND       PRES   REMARKS
BLOOMINGTON    CLOUDY    55  44  66 SW9       29.82S
6HR MIN TEMP:  53; 6HR MAX TEMP:  59;

MADISON *+     MOCLDY    59  46  63 SW3       29.84F
SEYMOUR +      CLOUDY    59  46  63 SW6       29.82

$$





USA.gov is the U.S. government's official web portal to all federal, state and local government web resources and services.